User: anonymous   Login
Location: Spruce Knob
(38.6995°N, 79.5330°W)
Time: 04:10:16
(UTC-05:00)
Language:

SR - Orbit

View from above orbital plane
View from above orbital plane
View from above satellite
View from above satellite

Ground track
Ground track

The orbit data is extracted from the following two-line orbital elements,

1 00046U 60007B   22027.34943711  .00000181  00000-0  59060-4 0  9992
2 00046  66.6890 255.0932 0204125  50.7848 311.1185 14.49512358224458
Epoch (UTC): 27 January 2022 08:23:11
Eccentricity: 0.0204125
inclination: 66.6890°
perigee height: 582 km
apogee height: 872 km
right ascension of ascending node: 255.0932°
argument of perigee: 50.7848°
revolutions per day: 14.49512358
mean anomaly at epoch: 311.1185°
orbit number at epoch: 22445

The dashed part of the orbit path shows where the satellite is in the earth's shadow,  

DLR